Location: Igon
(43.1667°N, 0.2333°W)
Time: 03:24:25
(UTC+00:00)

NOAA 16 DEB - Visible Passes

Search period start: 15 June 2021 00:00
Search period end: 25 June 2021 00:00
Orbit: 685 x 808 km, 98.9° (Epoch: 13 June)

Date Brightness Start Highest point End Pass type
(mag) Time Alt. Az. Time Alt. Az. Time Alt. Az.
15 Jun ? 03:09:07 10° SE 03:13:53 36° ENE 03:18:42 10° N visible
16 Jun ? 02:28:56 10° E 02:32:13 17° ENE 02:35:29 10° NNE visible
17 Jun ? 03:23:02 10° SE 03:28:06 47° ENE 03:33:10 10° N visible
18 Jun ? 02:42:23 10° ESE 02:46:19 22° ENE 02:50:15 10° NNE visible
19 Jun ? 03:37:05 10° SSE 03:42:17 62° ENE 03:47:33 10° N visible
20 Jun ? 02:56:00 10° ESE 03:00:25 28° ENE 03:04:50 10° N visible
21 Jun ? 02:16:36 10° E 02:18:48 13° ENE 02:21:00 10° NNE visible
22 Jun ? 03:09:45 10° SE 03:14:32 35° ENE 03:19:19 10° N visible
23 Jun ? 02:29:36 10° E 02:32:49 16° ENE 02:36:00 10° NNE visible
24 Jun ? 03:23:37 10° SE 03:28:39 46° ENE 03:33:41 10° N visible
